Burgas, Bulgaria

11:09 PM EEST on June 22, 2018 (GMT +0300)
Burgas

Weather History for LBBG - June, 2018

Change the Weather History Date:

Friday, June 22, 2018

  Actual Average Record
Temperature  
Mean Temperature 76 °F -  
Max Temperature 82 °F 80 °F 89 °F (2016)
Min Temperature 69 °F 60 °F 53 °F (2005)
Cooling Degree Days 10    
Growing Degree Days 26 (Base 50)    
Moisture  
Dew Point 66 °F    
Average Humidity 75    
Maximum Humidity 94    
Minimum Humidity 48    
Precipitation  
Precipitation 0.00 in - - ()
Sea Level Pressure  
Sea Level Pressure 29.83 in    
Wind  
Wind Speed 6 mph ()    
Max Wind Speed 22 mph    
Max Gust Speed -    
Visibility 6.6 miles    
Events      
Averages and records for this station are not official NWS values.
T = Trace of Precipitation, MM = Missing Value Source: Averaged Metar Reports

Daily Weather History Graph

Daily Weather History Graph

Search for Another Location

Airport or City:

Astronomy

Jun. 22, 2018 Rise Set
Actual Time 5:33 AM EEST 8:51 PM EEST
Civil Twilight 4:58 AM EEST 9:25 PM EEST
Nautical Twilight 4:12 AM EEST 10:11 PM EEST
Astronomical Twilight 3:17 AM EEST 11:06 PM EEST
Moon 3:12 PM EEST 2:16 AM EEST
Length of Visible Light 16h 27m
Length of Day
15h 17m
Waxing Gibbous, 70% of the Moon is Illuminated
Today
Waxing Gibbous
Jun 28
Full
Jul 6
Last Quarter
Jul 13
New
Jul 19
First Quarter

Hourly Weather History & Observations

Time (EEST) Temp. Heat Index Dew Point Humidity Pressure Visibility Wind Dir Wind Speed Gust Speed Precip Events Conditions
12:00 AM 71.6 °F - 68.0 °F 88% 29.92 in - East 3.5 mph - N/A   Clear
12:30 AM 69.8 °F - 66.2 °F 88% 29.89 in - West 5.8 mph - N/A   Clear
1:00 AM 71.6 °F - 69.8 °F 94% 29.89 in - West 4.6 mph - N/A   Clear
1:30 AM 71.6 °F - 64.4 °F 78% 29.89 in 6.2 mi WNW 3.5 mph - N/A   Partly Cloudy
2:00 AM 69.8 °F - 64.4 °F 83% 29.89 in - WNW 4.6 mph - N/A   Clear
2:30 AM 69.8 °F - 68.0 °F 94% 29.89 in - WSW 3.5 mph - N/A   Clear
3:00 AM 74 °F - 72 °F 91% 29.88 in 12 mi NW 4.5 mph - -  
3:00 AM 68.0 °F - 66.2 °F 94% 29.89 in - WNW 2.3 mph - N/A   Clear
3:30 AM 68.0 °F - 64.4 °F 88% 29.89 in - NW 4.6 mph - N/A   Clear
4:00 AM 68.0 °F - 64.4 °F 88% 29.86 in - West 3.5 mph - N/A   Clear
4:30 AM 68.0 °F - 66.2 °F 94% 29.86 in 6.2 mi West 4.6 mph - N/A   Partly Cloudy
5:00 AM 68.0 °F - 66.2 °F 94% 29.86 in 6.2 mi WSW 3.5 mph - N/A   Partly Cloudy
5:30 AM 66.2 °F - 64.4 °F 94% 29.86 in 3.1 mi WSW 6.9 mph - N/A   Scattered Clouds
6:00 AM 66.2 °F - 64.4 °F 94% 29.86 in 3.7 mi West 6.9 mph - N/A   Partly Cloudy
6:30 AM 68.0 °F - 66.2 °F 94% 29.86 in 3.7 mi WSW 5.8 mph - N/A   Partly Cloudy
7:00 AM 68.0 °F - 66.2 °F 94% 29.86 in 3.7 mi WSW 5.8 mph - N/A   Scattered Clouds
7:30 AM 69.8 °F - 66.2 °F 88% 29.86 in 4.3 mi WSW 5.8 mph - N/A   Unknown
8:00 AM 69.8 °F - 66.2 °F 88% 29.86 in 5.0 mi WSW 6.9 mph - N/A   Unknown
8:30 AM 71.6 °F - 66.2 °F 83% 29.86 in 6.2 mi West 6.9 mph - N/A   Partly Cloudy
9:00 AM 72 °F - 67 °F 78% 29.86 in 11 mi WSW 4.5 mph - -   Mostly Cloudy
9:00 AM 73.4 °F - 64.4 °F 73% 29.86 in 6.2 mi WSW 5.8 mph - N/A   Partly Cloudy
9:30 AM 77.0 °F - 66.2 °F 69% 29.86 in - WSW 3.5 mph - N/A   Clear
10:00 AM 75.2 °F - 68.0 °F 78% 29.86 in - SSE 5.8 mph - N/A   Clear
10:30 AM 78.8 °F - 68.0 °F 69% 29.86 in - South 5.8 mph - N/A   Clear
11:00 AM 78.8 °F - 68.0 °F 69% 29.86 in - SSE 8.1 mph - N/A   Clear
11:30 AM 80.6 °F 83.2 °F 68.0 °F 65% 29.83 in - SSE 9.2 mph - N/A   Clear
12:00 PM 80 °F - 67 °F 57% 29.85 in 11 mi Calm Calm - -   Mostly Cloudy
12:00 PM 82.4 °F 83.9 °F 64.4 °F 54% 29.83 in 6.2 mi ESE 10.4 mph - N/A   Partly Cloudy
12:30 PM 84.2 °F 85.6 °F 64.4 °F 51% 29.83 in 6.2 mi SE 11.5 mph - N/A   Partly Cloudy
1:00 PM 82.4 °F 83.9 °F 64.4 °F 54% 29.83 in 6.2 mi ESE 11.5 mph - N/A   Partly Cloudy
1:30 PM 84.2 °F 86.6 °F 66.2 °F 55% 29.83 in 6.2 mi SE 12.7 mph - N/A   Partly Cloudy
2:00 PM 82.4 °F 83.9 °F 64.4 °F 54% 29.80 in 6.2 mi SE 15.0 mph - N/A   Partly Cloudy
2:30 PM 80.6 °F 81.8 °F 62.6 °F 54% 29.80 in 6.2 mi ESE 11.5 mph - N/A   Partly Cloudy
3:00 PM 81 °F - 65 °F 48% 29.80 in 11 mi East 22.4 mph - -   Partly Cloudy
3:00 PM 80.6 °F 82.3 °F 64.4 °F 58% 29.80 in 6.2 mi ESE 10.4 mph - N/A   Partly Cloudy
3:30 PM 80.6 °F 83.2 °F 68.0 °F 65% 29.80 in 6.2 mi East 9.2 mph - N/A   Partly Cloudy
4:00 PM 80.6 °F 82.3 °F 64.4 °F 58% 29.83 in 6.2 mi ENE 8.1 mph - N/A   Partly Cloudy
4:30 PM 78.8 °F - 60.8 °F 54% 29.80 in 6.2 mi NNE 10.4 mph - N/A   Partly Cloudy
5:00 PM 78.8 °F - 60.8 °F 54% 29.80 in 6.2 mi East 8.1 mph - N/A   Partly Cloudy
5:30 PM 78.8 °F - 64.4 °F 61% 29.77 in 6.2 mi ESE 9.2 mph - N/A   Partly Cloudy
6:00 PM 78 °F - 66 °F 58% 29.78 in 11 mi ENE 22.4 mph - -   Partly Cloudy
6:00 PM 78.8 °F - 69.8 °F 74% 29.80 in 6.2 mi SE 9.2 mph - N/A   Partly Cloudy
6:30 PM 78.8 °F - 69.8 °F 74% 29.77 in 6.2 mi SE 10.4 mph - N/A   Partly Cloudy
7:00 PM 78.8 °F - 69.8 °F 74% 29.77 in 6.2 mi SE 10.4 mph - N/A   Partly Cloudy
7:30 PM 78.8 °F - 66.2 °F 65% 29.77 in 6.2 mi ESE 8.1 mph - N/A   Partly Cloudy
8:00 PM 78.8 °F - 68.0 °F 69% 29.77 in 6.2 mi ESE 8.1 mph - N/A   Partly Cloudy
8:30 PM 77.0 °F - 69.8 °F 78% 29.77 in 6.2 mi East 5.8 mph - N/A   Partly Cloudy
9:00 PM 77 °F - 72 °F 82% 29.77 in 11 mi East 8.9 mph - -   Scattered Clouds
9:00 PM 73.4 °F - 68.0 °F 83% 29.77 in - East 5.8 mph - N/A   Clear
9:30 PM 71.6 °F - 68.0 °F 88% 29.80 in - ENE 5.8 mph - N/A   Clear
10:00 PM 71.6 °F - 68.0 °F 88% 29.80 in - East 4.6 mph - N/A   Clear
10:30 PM 71.6 °F - 68.0 °F 88% 29.83 in 6.2 mi NW 5.8 mph - N/A   Scattered Clouds